カタログに戻る

STARLINK-36786

運用中通信VLEO
NORAD 67872·PAYLOAD·🇺🇸 United States

打ち上げ Feb 20, 2026 から Vandenberg Space Force Base

Loading…

次のパス (今後24時間)

TLE

最新Source: CelesTrak SupGP

元期: Sep 14, 2026, 22:40 UTC

1 67872C 26034Y   26257.94493056  .00013673  00000+0  43991-3 0  2572
2 67872  53.1588  43.7667 0001131  80.3417 194.2490 15.31679366    11

AllMySatでSTARLINK-36786をリアルタイム追跡

Download on the App Store